Theta_e
292 288 286 290 290 291 284 283 284 288 291 288 289 291 293 296 295 292 294 296 298 298 302 301 298 297 297 296 296 295 293 294 294 292 290 290 291 290 289 290 290 288 288 287
288 285 291 290 289 288 287 286 286 290 292 287 289 289 292 294 295 297 298 298 297 299 299 300 295 294 295 295 296 295 294 294 294 294 294 293 293 289 291 289 289 288 287 286
288 290 293 290 287 287 285 284 287 286 288 287 285 287 289 292 294 297 298 299 299 298 298 299 297 292 295 295 295 295 294 293 294 294 293 286 286 285 285 286 287 287 287 286
288 291 291 288 287 288 286 289 289 287 284 282 285 280 285 288 289 291 294 296 296 297 298 298 298 292 292 295 296 295 294 293 294 293 292 291 290 289 288 290 288 287 286 285
286 287 286 287 289 290 287 288 287 284 282 281 281 279 284 287 286 290 294 295 296 297 296 297 298 295 293 294 294 294 293 292 293 292 292 291 291 291 287 285 284 286 285 285
288 289 289 289 289 290 289 285 284 282 281 278 283 282 284 284 287 289 291 293 295 296 296 296 295 293 292 291 292 292 291 291 292 291 291 291 290 287 285 285 285 285 285 284
283 286 288 290 286 286 286 283 277 275 274 279 281 280 287 288 289 291 292 294 294 293 293 294 292 291 292 290 290 290 290 290 291 290 290 290 290 288 288 285 286 284 284 283
280 283 286 288 288 286 285 285 278 271 277 282 280 279 288 290 291 291 290 291 292 292 293 293 292 292 290 289 288 290 289 289 290 289 290 290 290 289 288 286 287 286 285 285
280 282 285 287 287 289 282 281 286 280 268 272 282 284 291 290 289 288 290 289 290 290 290 290 290 290 289 288 288 288 288 290 289 289 289 289 289 289 287 286 286 286 285 285
286 282 286 285 287 286 285 285 280 278 271 270 278 279 283 288 290 291 290 291 290 290 290 289 290 290 289 288 287 287 288 289 288 288 289 289 288 288 287 285 285 285 285 284
289 286 286 287 283 284 281 282 283 283 282 279 277 281 292 292 292 289 288 289 290 290 290 292 291 291 289 287 287 286 287 288 287 288 288 288 288 288 287 285 285 285 284 283
291 287 283 286 289 286 285 285 285 281 280 282 282 283 295 295 296 295 295 296 295 292 291 289 290 290 290 288 287 286 286 288 289 289 288 287 288 287 286 286 284 285 283 283
291 287 282 284 286 286 285 288 288 288 286 281 278 281 294 295 295 296 296 293 291 291 294 294 292 292 290 290 290 288 288 288 288 288 287 287 286 285 286 286 284 283 283 282
295 289 286 280 284 287 283 285 287 287 282 282 283 285 289 291 292 294 295 297 293 293 292 293 293 292 291 290 290 288 288 288 286 285 285 286 286 285 286 286 284 282 282 281
287 281 284 284 284 284 283 284 285 284 286 283 285 285 289 292 293 294 295 294 289 287 288 287 287 288 289 289 290 288 288 286 286 286 285 286 286 286 286 284 283 282 282 281
284 277 280 277 281 282 281 284 285 286 286 285 285 284 291 285 286 286 288 285 285 286 286 287 287 286 286 287 288 288 289 286 285 285 285 286 284 284 284 283 282 281 280 279
277 275 271 271 277 276 271 277 279 282 284 282 279 279 281 280 280 283 282 282 282 283 284 284 285 286 285 286 286 287 285 286 283 284 285 284 284 283 283 282 280 280 279 278
276 274 270 269 270 259 275 281 282 280 277 277 277 278 279 279 280 284 282 282 282 283 284 285 285 285 285 285 285 285 284 283 283 282 283 281 283 282 281 280 279 278 278 277
279 276 272 269 264 273 277 277 274 273 274 277 275 277 278 279 279 279 282 283 283 284 285 286 286 286 285 285 285 284 283 282 281 281 280 280 280 280 278 277 277 277 277 276
275 277 272 262 264 262 272 276 278 277 270 277 278 278 277 277 271 274 280 281 282 283 284 284 285 285 285 285 285 283 283 282 281 279 280 279 279 280 277 278 277 278 277 277
260 258 259 256 257 265 271 275 277 266 267 277 280 279 278 275 276 279 281 280 281 281 281 283 283 282 284 284 284 283 282 282 281 277 276 276 276 277 277 276 275 275 275 275
265 258 255 255 254 258 274 275 269 271 275 275 277 276 275 276 276 276 277 278 278 278 279 279 279 279 280 282 283 282 282 283 277 275 274 274 275 276 276 275 273 274 274 273
265 268 263 266 265 275 276 275 279 278 276 276 276 276 276 274 274 274 275 275 275 275 277 277 277 277 278 279 281 280 281 282 278 275 275 274 275 275 275 273 272 273 273 272
271 275 270 267 273 274 276 278 278 278 277 277 276 274 274 272 273 273 273 273 273 273 274 275 274 273 273 275 275 274 276 280 280 277 276 274 274 274 274 275 274 273 272 272
273 272 270 271 274 275 277 277 277 277 276 275 274 273 272 272 272 272 271 271 271 272 272 271 271 271 270 271 271 273 274 275 275 278 277 275 274 274 273 274 274 274 275 275
275 273 270 269 275 275 276 278 275 274 273 272 271 271 272 271 270 270 269 270 270 269 269 268 268 267 267 268 268 268 270 270 270 273 276 276 274 273 273 272 272 278 277 278
Wind_Speed
3 5 11 23 15 16 2 6 7 13 9 4 11 19 19 18 14 14 16 18 22 20 26 15 11 12 13 13 16 18 19 19 15 12 11 9 13 9 7 8 11 11 9 9
2 11 19 0 4 7 10 13 19 17 20 5 18 24 21 15 18 24 24 21 22 21 18 18 9 9 15 18 20 18 20 19 17 14 13 7 10 6 8 7 8 10 10 10
15 9 8 8 4 10 7 8 20 18 9 6 11 19 16 15 21 25 26 25 20 21 22 19 11 12 12 15 17 19 22 22 19 17 10 4 6 4 3 6 7 9 11 10
9 6 11 5 7 11 16 12 15 14 5 9 2 19 7 11 12 10 19 19 14 17 17 17 16 10 11 17 14 14 15 16 17 19 17 19 13 12 10 11 8 8 11 12
10 5 5 7 15 10 11 3 7 2 4 7 5 6 3 7 8 14 18 16 16 16 14 18 19 10 10 10 14 15 16 17 18 18 19 17 15 11 6 5 10 10 9 11
10 1 6 9 6 12 3 1 1 4 1 11 13 9 4 7 9 6 6 10 12 15 12 11 9 5 8 7 10 14 17 18 19 19 18 20 19 12 9 11 12 10 8 8
1 5 4 5 4 2 4 6 4 5 1 15 4 8 16 6 7 9 10 11 11 9 10 12 10 7 8 10 10 11 17 18 19 19 18 19 17 15 17 13 12 13 10 9
1 15 7 5 9 10 10 11 9 9 15 19 4 15 17 9 8 8 6 9 9 9 10 12 13 11 8 6 7 11 13 15 17 18 20 16 16 11 11 13 11 11 12 12
5 12 2 5 3 7 4 7 4 1 0 1 13 18 23 11 9 3 7 7 10 9 8 9 10 7 7 7 8 7 8 10 13 14 12 14 14 14 12 10 10 9 9 9
4 15 7 1 1 2 7 1 3 2 4 10 11 8 20 17 15 12 10 12 9 7 8 7 7 7 6 5 4 8 8 11 9 11 14 13 14 14 11 10 13 13 10 12
4 7 16 4 7 10 2 5 5 3 6 15 18 14 23 25 14 12 9 9 9 9 10 9 9 6 5 3 6 8 9 10 10 13 13 14 13 14 13 13 14 14 13 14
7 5 7 14 7 2 3 8 9 12 12 13 20 20 24 31 25 21 23 21 11 8 9 7 7 5 4 7 8 9 8 11 13 12 14 15 12 12 14 14 14 14 15 15
5 4 7 11 8 2 6 13 14 18 16 21 19 12 12 20 30 33 28 13 8 9 11 8 8 9 8 7 7 10 8 13 11 11 14 13 14 15 17 17 15 15 15 15
8 17 25 24 21 12 8 10 9 18 14 18 21 26 21 23 26 29 30 29 11 7 8 9 9 9 9 8 8 8 11 12 10 10 12 14 15 17 18 16 15 15 16 16
4 6 6 16 13 11 18 22 21 23 25 28 26 28 25 27 26 22 23 18 19 17 17 16 17 16 17 17 13 9 9 6 7 12 14 18 18 15 14 14 15 15 16 15
2 11 14 22 25 22 22 20 25 20 23 21 25 30 24 21 23 24 16 18 18 19 19 18 18 17 17 18 18 17 15 9 7 10 14 13 10 11 13 12 13 14 14 14
7 5 2 20 25 17 15 25 23 21 21 19 14 10 15 17 21 13 17 18 19 18 19 19 19 18 16 18 17 16 17 15 9 10 12 10 11 13 14 13 14 15 15 14
16 12 4 11 12 5 9 9 7 6 12 13 12 12 14 14 16 7 15 18 18 18 18 15 14 17 17 16 17 18 17 13 11 9 6 5 8 10 10 12 14 14 13 16
13 11 6 6 8 15 18 8 7 8 6 10 15 10 12 15 14 11 11 14 15 13 15 12 13 14 16 16 16 17 20 15 12 10 5 3 6 6 8 11 11 10 12 12
5 0 4 5 5 5 2 3 7 11 9 7 5 6 11 13 14 18 17 16 17 14 14 14 14 12 15 16 16 17 18 17 15 10 9 4 5 6 8 8 9 8 8 10
4 4 5 3 4 8 3 8 7 3 8 11 1 4 8 9 9 20 20 18 15 14 15 17 15 14 13 15 16 17 16 17 16 9 6 4 1 6 5 5 3 7 9 9
4 2 4 1 1 9 2 13 3 8 4 5 4 5 7 9 12 13 17 16 16 16 16 16 16 15 14 14 14 16 16 13 11 7 7 5 1 2 6 7 5 6 7 8
6 8 7 9 9 8 12 14 16 8 8 5 5 7 5 11 13 13 14 16 16 16 13 13 13 16 14 15 12 16 16 15 11 6 7 6 4 3 5 10 8 7 9 9
7 10 9 3 17 17 14 15 13 12 7 6 6 5 5 11 13 14 14 16 15 14 15 13 14 17 17 13 16 16 16 17 14 13 11 6 6 5 6 6 8 11 10 10
9 4 8 15 18 19 19 16 9 5 6 6 5 8 11 11 15 13 15 17 16 16 15 13 14 15 19 17 16 15 14 15 19 15 12 9 8 9 9 9 8 9 10 14
11 17 12 16 21 17 18 17 1 7 6 4 9 14 12 12 17 16 18 16 15 17 17 17 18 18 18 17 18 16 15 14 17 18 12 9 8 8 8 8 8 19 14 19
Wind_Direction
195 134 205 225 207 235 201 238 238 252 260 221 236 259 258 263 275 254 251 255 259 252 260 264 226 203 199 189 190 190 186 190 176 178 176 188 198 193 193 190 185 182 180 176
79 217 226 54 198 217 238 259 264 275 265 222 266 262 264 255 253 258 258 256 257 261 266 264 242 197 196 195 196 192 196 185 189 187 191 193 187 192 194 182 182 184 179 175
218 223 218 204 209 248 220 230 260 261 307 236 281 271 249 247 250 258 265 258 262 260 264 267 251 207 204 204 197 199 193 188 187 184 167 97 90 69 130 185 191 190 179 175
241 238 211 143 212 214 265 226 261 272 331 271 8 293 190 235 235 235 253 267 252 259 260 262 262 232 199 210 198 198 195 193 189 176 175 182 189 188 197 194 188 181 180 180
244 192 159 190 223 156 242 207 242 241 227 319 204 262 200 180 240 246 251 257 263 251 253 261 261 231 204 203 198 186 180 183 186 191 187 184 194 191 153 150 158 176 186 186
247 335 178 221 208 179 112 86 76 57 96 270 202 188 10 166 212 262 247 251 257 271 272 265 294 225 233 206 191 182 180 182 184 185 191 196 192 176 161 166 172 180 184 185
311 214 245 180 238 122 129 94 309 321 3 256 149 215 251 255 218 218 245 272 279 316 295 304 304 260 246 213 199 186 179 188 181 183 191 195 195 185 189 179 179 173 174 188
234 288 187 170 200 190 186 167 170 214 267 275 120 258 272 223 251 243 288 277 287 312 306 299 278 278 257 239 191 191 194 183 185 186 192 191 195 192 191 184 181 183 191 189
195 261 232 217 174 158 181 183 214 9 78 280 265 273 287 247 245 264 262 277 279 289 300 299 311 292 284 201 202 221 194 196 191 193 196 198 193 193 195 184 177 184 177 177
271 293 185 121 123 185 172 282 35 19 195 240 256 260 257 278 275 284 296 283 284 297 304 311 319 298 264 237 199 182 191 199 193 195 198 201 197 194 182 174 187 181 177 167
198 207 265 18 207 202 135 225 205 188 201 252 261 257 272 277 283 284 276 264 286 307 305 327 319 294 270 265 204 205 195 195 193 194 201 203 198 191 182 190 191 185 170 173
167 207 252 261 265 207 166 233 220 235 246 236 253 247 274 284 289 287 281 292 292 273 273 250 272 292 282 230 236 221 209 207 211 204 206 208 200 191 191 201 195 183 184 180
191 240 266 278 269 195 208 229 233 252 268 259 260 266 264 288 294 289 290 291 256 257 281 314 302 289 264 249 243 244 228 230 218 200 204 203 201 192 197 202 194 183 178 183
343 257 251 255 262 284 261 276 236 237 251 265 259 273 269 265 269 282 291 293 304 301 311 313 324 318 315 292 257 235 232 219 198 191 200 215 204 207 206 196 192 186 185 181
45 285 317 304 309 308 313 310 294 280 285 274 278 280 287 279 283 289 301 343 29 17 10 1 356 355 349 353 344 299 276 259 232 225 208 214 217 213 203 192 189 184 189 185
334 275 300 293 284 281 279 271 265 270 275 273 273 276 298 16 6 355 13 20 11 0 352 347 340 343 347 339 334 336 329 289 235 229 226 228 212 201 200 186 184 184 182 178
252 243 250 272 282 295 271 257 267 265 265 305 315 23 21 13 0 353 24 12 359 348 341 345 339 334 337 332 328 328 324 317 265 234 241 223 212 205 189 179 180 186 183 173
255 262 236 266 305 241 258 36 40 44 49 25 345 28 22 354 346 301 16 357 340 335 329 326 327 328 330 328 326 330 322 315 308 269 240 207 205 204 183 179 182 179 179 185
222 247 256 250 213 269 292 19 19 3 322 23 354 5 355 337 326 307 335 342 322 318 316 318 322 320 323 326 325 327 323 318 322 312 301 229 190 179 183 187 184 185 178 181
94 117 211 0 272 256 139 257 248 274 249 15 7 333 333 344 332 312 329 326 315 320 312 314 311 318 320 322 325 324 323 323 324 329 309 244 180 178 187 192 180 176 188 181
359 345 191 239 253 288 245 321 352 19 292 350 169 298 305 314 284 298 317 318 315 313 322 322 319 315 313 318 319 315 321 324 324 321 303 296 198 153 157 142 155 162 165 155
176 171 238 3 65 290 266 348 115 229 277 228 237 254 267 291 293 294 298 301 307 312 317 313 312 310 316 316 310 307 311 319 312 316 307 293 215 201 141 139 119 163 147 148
261 193 213 186 222 277 306 276 285 265 262 244 243 269 267 285 287 293 294 300 303 305 299 301 299 303 313 312 311 315 318 315 296 279 264 264 237 185 176 152 155 167 157 161
242 239 248 322 268 265 271 277 269 283 225 263 266 277 278 278 289 295 298 296 299 300 298 305 304 299 299 307 302 293 306 311 294 281 267 227 222 221 189 210 192 173 174 167
243 140 225 254 272 279 272 266 259 242 274 271 291 294 290 285 285 290 288 290 294 296 300 304 299 294 291 294 297 305 309 312 300 289 276 247 219 204 203 198 207 221 209 187
236 243 250 258 268 268 271 281 12 288 280 278 292 294 288 288 287 293 286 286 289 294 299 299 297 294 294 297 294 297 298 294 291 290 285 253 240 223 208 205 214 216 217 212